STARLINK-30048

decayed
NORAD ID: 55711 Int'l Des: 2023-026 Owner: SPXS Country: US Constellation: starlink
LEOCIRCULAR

关于 STARLINK-30048

正在加载描述...

高度历史

Altitude vs Time

uPlot chart will show altitude changes over time

两行轨道根数

1 55711U 23026S 23155.14272694 .11167259 92964-5 59184-3 0 9990
2 55711 42.9800 55.8163 0010811 252.7820 257.0334 16.41917216 16233
Epoch: Jun 4, 2023 • Age: 20112 hours

当前状态

Position data unavailable
发射日期 Feb 27, 2023
运行时间 2.5 years
衰减日期 Jun 4, 2023
类型 internet

技术详情

分类 Payload
质量 730.00 kg
干质量 700.00 kg
总质量 730.00 kg
长度 0.30 m
直径 4.10 m
跨度 29.00 m
形状 Box + pan
制造商 SPXS
平台类型 Starlink V2M
阶段状态 Unknown Transfer Status
所有者/国家 SPXS/US

大型星座

Loading constellations...